TimeMST,TemperatureF,Dew PointF,Humidity,Sea Level PressureIn,VisibilityMPH,Wind Direction,Wind SpeedMPH,Gust SpeedMPH,PrecipitationIn,Events,Conditions,WindDirDegrees,DateUTC
12:02 AM,-2.2,-7.6,78,29.60,10.0,NNE,10.4,-,N/A,,Mostly Cloudy,20,2013-12-08 07:02:00
12:07 AM,-2.2,-7.6,78,29.61,10.0,North,6.9,-,N/A,,Scattered Clouds,360,2013-12-08 07:07:00
12:58 AM,-0.6,-5.6,79,29.91,10.0,NNE,8.1,-,0.00,,Clear,20,2013-12-08 07:58:00
1:43 AM,-0.4,-4.0,85,29.57,10.0,Variable,2.3,-,N/A,,Mostly Cloudy,0,2013-12-08 08:43:00
1:46 AM,-0.4,-4.0,85,29.56,9.0,ENE,3.5,-,N/A,Snow,Light Snow,70,2013-12-08 08:46:00
1:51 AM,-0.4,-4.0,85,29.56,9.0,NE,2.3,-,N/A,Snow,Light Snow,40,2013-12-08 08:51:00
1:55 AM,-0.4,-4.0,85,29.56,10.0,SE,2.3,-,N/A,,Scattered Clouds,140,2013-12-08 08:55:00
1:58 AM,0.1,-4.5,81,29.88,10.0,Variable,2.3,-,0.00,,Scattered Clouds,0,2013-12-08 08:58:00
2:48 AM,-0.4,-5.8,78,29.57,10.0,Calm,Calm,-,N/A,,Mostly Cloudy,0,2013-12-08 09:48:00
2:58 AM,-0.9,-5.1,83,29.88,10.0,Calm,Calm,-,N/A,,Mostly Cloudy,0,2013-12-08 09:58:00
3:05 AM,-2.2,-5.8,85,29.57,10.0,North,3.5,-,N/A,Snow,Light Snow,360,2013-12-08 10:05:00
3:15 AM,-2.2,-5.8,85,29.56,10.0,North,4.6,-,N/A,Snow,Light Snow,10,2013-12-08 10:15:00
3:19 AM,-2.2,-5.8,85,29.56,10.0,North,3.5,-,N/A,,Overcast,350,2013-12-08 10:19:00
3:21 AM,-2.2,-5.8,85,29.56,10.0,North,3.5,-,N/A,Snow,Light Snow,360,2013-12-08 10:21:00
3:27 AM,-0.4,-4.0,85,29.56,10.0,North,1.2,-,N/A,,Overcast,360,2013-12-08 10:27:00
3:58 AM,0.1,-4.5,81,29.87,10.0,North,6.9,-,0.00,,Overcast,360,2013-12-08 10:58:00
4:58 AM,1.0,-3.3,82,29.85,10.0,North,6.9,-,N/A,,Overcast,350,2013-12-08 11:58:00
5:13 AM,-0.4,-4.0,85,29.53,10.0,North,11.5,-,N/A,,Scattered Clouds,10,2013-12-08 12:13:00
5:58 AM,-0.8,-5.3,81,29.89,10.0,South,5.8,-,N/A,,Clear,170,2013-12-08 12:58:00
6:58 AM,-3.8,-8.5,80,29.91,10.0,SE,6.9,-,N/A,,Clear,130,2013-12-08 13:58:00
7:38 AM,-2.2,-7.6,78,29.56,10.0,South,10.4,-,N/A,,Mostly Cloudy,180,2013-12-08 14:38:00
7:58 AM,-0.2,-4.7,81,29.93,7.0,SSE,5.8,-,N/A,,Overcast,150,2013-12-08 14:58:00
8:13 AM,1.4,-2.2,85,29.57,4.0,Variable,2.3,-,N/A,,Haze,0,2013-12-08 15:13:00
8:18 AM,1.4,-2.2,85,29.58,5.0,SSW,4.6,-,N/A,,Haze,210,2013-12-08 15:18:00
8:53 AM,1.4,-2.2,85,29.60,6.0,Variable,2.3,-,N/A,,Haze,0,2013-12-08 15:53:00
8:58 AM,1.9,-2.2,83,29.95,6.0,NE,3.5,-,N/A,,Haze,50,2013-12-08 15:58:00
9:26 AM,3.2,-0.4,85,29.63,6.0,West,3.5,-,N/A,Snow,Light Snow,280,2013-12-08 16:26:00
9:36 AM,5.0,1.4,85,29.62,9.0,Variable,2.3,-,N/A,,Scattered Clouds,0,2013-12-08 16:36:00
9:41 AM,5.0,1.4,85,29.62,9.0,ENE,3.5,-,N/A,,Mostly Cloudy,60,2013-12-08 16:41:00
9:56 AM,6.8,1.4,79,29.63,9.0,North,9.2,-,N/A,,Scattered Clouds,10,2013-12-08 16:56:00
9:58 AM,6.1,1.9,83,29.95,10.0,North,9.2,-,0.00,,Scattered Clouds,10,2013-12-08 16:58:00
10:58 AM,18.9,10.6,70,29.91,10.0,North,19.6,-,N/A,,Clear,360,2013-12-08 17:58:00
11:58 AM,20.5,10.9,67,29.90,10.0,North,13.8,-,N/A,,Clear,360,2013-12-08 18:58:00
12:58 PM,22.1,10.2,60,29.91,10.0,NNE,8.1,-,N/A,,Partly Cloudy,30,2013-12-08 19:58:00
1:58 PM,21.9,9.3,58,29.94,10.0,North,5.8,-,N/A,,Clear,10,2013-12-08 20:58:00
2:58 PM,23.0,9.9,57,29.95,10.0,NE,4.6,-,N/A,,Clear,40,2013-12-08 21:58:00
3:58 PM,18.9,9.7,67,29.99,10.0,SSE,12.7,-,N/A,,Clear,150,2013-12-08 22:58:00
4:58 PM,14.0,8.4,78,30.04,10.0,SW,5.8,-,N/A,,Clear,220,2013-12-08 23:58:00
5:58 PM,11.8,7.2,81,30.09,10.0,SSE,9.2,-,N/A,,Clear,150,2013-12-09 00:58:00
6:28 PM,12.2,6.8,79,29.81,10.0,SSE,6.9,-,N/A,,Mostly Cloudy,160,2013-12-09 01:28:00
6:53 PM,14.0,8.6,79,29.83,10.0,South,11.5,-,N/A,,Overcast,170,2013-12-09 01:53:00
6:58 PM,14.0,8.6,79,30.14,10.0,South,11.5,-,N/A,,Overcast,180,2013-12-09 01:58:00
7:08 PM,14.0,8.6,79,29.84,10.0,South,12.7,-,N/A,,Overcast,180,2013-12-09 02:08:00
7:44 PM,12.2,8.6,85,29.85,10.0,SSE,12.7,-,N/A,Snow,Light Snow,160,2013-12-09 02:44:00
7:49 PM,12.2,8.6,85,29.85,10.0,SSE,12.7,-,N/A,Snow,Light Snow,150,2013-12-09 02:49:00
7:58 PM,12.7,8.2,82,30.14,10.0,SSE,10.4,-,0.00,Snow,Light Snow,150,2013-12-09 02:58:00
8:14 PM,12.2,8.6,85,29.86,8.0,South,10.4,-,N/A,,Overcast,170,2013-12-09 03:14:00
8:16 PM,12.2,8.6,85,29.86,8.0,South,10.4,-,N/A,Snow,Light Snow,170,2013-12-09 03:16:00
8:26 PM,12.2,8.6,85,29.86,6.0,South,8.1,-,N/A,Snow,Light Snow,180,2013-12-09 03:26:00
8:41 PM,12.2,6.8,79,29.86,5.0,South,11.5,-,N/A,Snow,Light Snow,170,2013-12-09 03:41:00
8:58 PM,11.1,6.6,82,30.16,6.0,SSE,9.2,-,0.00,Snow,Light Snow,160,2013-12-09 03:58:00
9:10 PM,10.4,5.0,79,29.86,7.0,SSE,10.4,-,N/A,,Overcast,150,2013-12-09 04:10:00
9:35 PM,8.6,5.0,85,29.87,9.0,South,8.1,-,N/A,,Overcast,170,2013-12-09 04:35:00
9:58 PM,8.8,3.6,79,30.16,10.0,South,8.1,-,0.00,,Overcast,170,2013-12-09 04:58:00
10:38 PM,8.6,1.4,73,29.90,10.0,SSE,8.1,-,N/A,Snow,Light Snow,150,2013-12-09 05:38:00
10:54 PM,6.8,1.4,79,29.90,9.0,SSE,9.2,-,N/A,,Overcast,160,2013-12-09 05:54:00
10:58 PM,7.5,1.9,78,30.13,9.0,SSE,11.5,-,0.00,,Overcast,160,2013-12-09 05:58:00
11:02 PM,6.8,1.4,79,29.90,8.0,SSE,10.4,-,N/A,Snow,Light Snow,160,2013-12-09 06:02:00
11:31 PM,6.8,1.4,79,29.91,6.0,SSE,10.4,-,N/A,,Haze,160,2013-12-09 06:31:00
11:36 PM,6.8,1.4,79,29.90,6.0,SSE,11.5,-,N/A,,Haze,150,2013-12-09 06:36:00
11:58 PM,6.1,0.9,79,30.14,8.0,SSE,8.1,-,0.00,,Overcast,150,2013-12-09 06:58:00